GFSMW_sfc_dewp_111.txt.gz
Dewpoint
30 40 44 46 48 49 49 50 51 53 53 52 49 45 55 58 61 62 66 67 66 66 67 66 67 67 66 66 66 67 66 65 64 65 64 63 64 64 65 64 63 62 61
36 40 42 44 46 46 48 48 48 50 51 51 52 52 51 53 56 61 63 65 67 68 67 67 66 67 66 65 65 65 65 65 65 62 61 59 61 63 62 63 63 62 63
37 39 40 42 44 44 45 45 46 47 49 51 50 52 53 53 56 57 58 62 66 68 67 66 67 67 65 64 65 65 64 62 64 63 59 57 55 58 60 62 62 62 62
38 38 39 40 41 42 45 45 45 46 46 48 49 51 51 52 49 56 56 60 64 66 67 67 66 67 66 65 65 65 64 63 61 62 61 60 57 55 52 59 60 62 62
39 39 39 38 38 41 42 44 44 44 45 46 48 48 50 51 53 55 59 61 62 65 65 66 66 67 66 66 66 64 65 64 62 61 61 61 59 58 55 53 57 59 61
38 38 37 37 37 39 41 43 43 42 43 44 46 46 47 49 51 54 56 60 60 64 64 65 65 66 66 65 66 66 65 64 63 62 61 60 59 57 56 55 54 55 58
37 37 36 35 37 38 39 40 40 40 41 42 43 43 44 47 49 52 56 58 61 64 65 64 65 65 65 65 66 65 64 65 63 63 60 60 60 58 57 57 55 53 59
35 34 34 35 35 36 37 38 38 38 39 40 40 40 41 44 46 50 53 57 60 62 65 64 65 65 65 65 66 65 64 64 64 64 63 60 61 60 59 56 57 56 56
33 34 34 34 35 35 37 38 37 37 37 38 39 39 41 43 45 48 53 56 61 62 65 65 64 64 64 64 65 65 65 64 64 65 64 62 61 61 60 59 58 57 53
31 33 33 34 34 35 35 37 37 36 36 37 37 38 40 43 45 47 50 57 61 62 64 65 64 64 64 64 64 64 64 65 64 63 62 62 62 61 61 59 60 59 56
30 32 32 32 33 33 34 34 34 34 35 35 35 37 40 43 47 53 55 60 62 62 63 64 63 63 64 63 63 63 63 62 62 62 62 61 61 61 60 60 60 60 59
31 31 31 32 31 31 31 31 32 33 33 34 35 37 40 42 46 50 59 60 61 62 62 63 62 62 62 62 62 62 62 61 61 61 61 60 60 60 60 61 60 60 59
30 30 30 30 30 30 30 30 30 31 32 33 34 35 38 39 41 44 49 51 60 60 60 62 62 62 62 61 62 62 62 61 61 61 61 60 59 59 59 59 59 59 59
29 29 29 30 30 30 30 29 29 30 30 31 32 33 35 37 38 41 43 45 48 58 60 61 61 61 61 60 61 61 61 60 60 60 60 59 57 57 57 56 57 58 58
28 28 28 29 29 29 29 30 30 30 30 30 31 31 34 35 36 37 37 38 41 42 44 52 53 57 58 57 60 60 60 58 56 53 50 45 41 39 39 45 49 53 55
27 27 28 30 30 30 29 30 31 31 31 30 30 31 32 33 34 34 34 34 35 35 37 37 38 41 44 43 48 55 57 55 51 46 43 41 39 37 35 35 35 35 41
27 28 29 30 30 30 31 31 32 32 31 30 31 30 31 31 31 33 32 32 32 32 33 35 35 34 37 39 43 42 42 41 41 42 41 39 38 39 39 35 34 33 34
28 29 29 30 31 32 31 32 32 32 32 31 31 31 31 30 30 29 29 30 30 29 29 30 33 33 33 34 35 35 35 34 34 34 35 35 34 34 35 34 33 31 31
29 29 30 30 31 31 32 31 30 31 31 31 32 32 32 31 30 29 29 29 28 28 27 28 29 30 31 34 34 32 31 30 30 31 32 31 31 32 34 32 31 30 30
30 29 29 30 29 30 30 30 29 29 30 31 31 32 33 32 32 32 31 31 30 28 27 26 27 29 29 32 32 32 31 29 28 29 30 31 30 30 30 29 28 26 26
31 31 29 28 29 30 29 29 29 29 30 31 31 31 32 32 32 32 33 32 32 31 30 28 28 27 28 29 30 29 27 27 26 26 27 29 30 30 29 28 27 26 27
28 24 23 27 29 29 28 25 27 30 31 30 29 29 30 31 31 32 32 32 32 31 30 30 28 29 30 30 29 29 28 27 25 24 26 28 29 29 29 28 28 26 26
20 17 17 19 21 22 22 26 28 29 30 30 29 29 28 29 30 29 29 28 28 27 28 28 27 27 28 29 30 30 29 28 27 27 28 28 29 29 28 29 30 30 27
17 15 16 17 19 19 19 21 21 24 26 26 28 29 28 26 25 26 26 25 25 27 25 24 24 24 24 25 27 28 29 30 30 31 31 30 29 29 29 30 30 30 30
17 16 16 16 18 18 19 19 20 20 19 19 20 22 23 23 23 23 22 23 24 23 23 25 23 23 22 23 23 23 25 27 28 30 30 28 29 27 26 26 26 27 28
17 16 16 15 17 19 20 21 22 21 23 22 22 23 22 23 22 23 24 21 20 20 20 20 22 23 21 19 19 20 21 21 24 25 25 24 24 22 21 21 20 20 20

GFSMW_sfc_dewp_114.txt.gz
Dewpoint
34 42 46 48 48 50 50 50 53 55 54 54 54 55 54 54 62 63 66 66 66 66 66 66 68 66 65 65 65 65 65 64 65 63 62 63 63 64 64 64 64 63 62
36 41 43 45 47 47 48 48 48 49 50 50 51 53 54 55 55 56 59 64 66 66 66 66 66 67 65 64 65 66 64 64 65 61 60 58 60 62 63 63 63 62 62
39 39 40 43 46 46 47 45 46 47 48 50 48 50 52 54 55 53 53 61 64 67 66 66 66 66 65 64 63 65 64 62 63 63 59 55 54 57 61 62 62 62 62
37 38 39 40 42 44 46 45 46 45 45 47 47 48 48 49 51 52 54 56 60 60 66 65 66 66 66 64 63 65 64 62 61 63 61 59 57 55 55 59 61 61 61
38 38 37 37 38 42 43 45 44 43 43 45 46 46 46 47 48 49 51 53 57 59 63 65 66 66 66 65 63 63 64 63 61 61 61 60 59 59 56 55 57 61 61
37 37 37 37 37 40 42 43 42 41 42 43 43 44 44 44 45 47 48 51 53 57 62 63 65 65 65 65 64 64 64 62 62 61 60 60 59 57 56 55 55 57 58
35 34 34 34 37 38 39 39 40 39 40 40 40 41 41 42 42 43 46 48 50 54 59 62 64 64 65 65 65 65 64 63 62 61 61 60 59 59 57 56 55 54 57
33 33 33 35 35 37 37 38 37 37 37 37 38 38 39 39 41 42 44 46 49 51 55 61 62 64 63 64 64 64 64 64 63 62 62 60 59 59 58 56 56 54 55
30 31 31 34 35 35 36 37 36 35 36 37 37 37 38 38 39 40 42 44 47 49 53 57 62 63 64 63 64 64 64 64 63 63 62 61 61 60 59 59 59 56 52
28 30 31 34 34 34 33 35 35 34 34 35 35 35 37 38 39 41 43 44 45 48 52 54 60 64 64 64 64 64 63 63 63 62 61 61 59 61 60 59 59 57 55
29 30 31 32 32 32 32 33 33 33 32 33 33 35 36 37 40 41 43 45 48 49 51 54 59 62 63 63 64 63 62 62 62 62 62 60 57 61 60 60 60 58 58
28 29 30 31 31 30 30 31 32 32 32 32 33 34 35 36 38 39 41 44 48 55 53 56 59 61 62 62 63 62 62 62 61 61 61 60 61 60 60 60 59 58 58
28 29 30 30 30 30 30 31 32 31 31 31 32 33 34 34 36 38 39 41 46 49 57 59 59 60 61 61 63 62 62 62 62 61 60 60 60 60 60 59 59 58 58
28 28 29 29 29 30 29 31 33 32 31 31 32 32 32 33 34 36 37 37 39 41 43 53 57 59 61 62 62 62 62 61 61 60 59 58 57 57 57 56 56 55 56
27 27 27 28 27 28 30 31 32 33 33 32 31 31 32 32 33 34 34 34 34 37 39 39 40 44 46 49 59 61 61 61 56 49 44 42 40 39 42 49 44 46 50
27 26 27 28 28 29 31 31 32 32 33 33 32 32 32 31 30 31 31 32 32 31 34 36 37 36 36 38 43 56 60 54 48 43 40 39 37 36 36 35 35 34 38
26 27 28 30 29 30 31 30 31 32 32 32 32 32 32 31 30 29 29 28 29 30 30 31 34 34 35 36 39 41 44 44 45 43 40 39 39 37 35 34 33 33 33
26 27 29 29 30 31 31 32 32 31 31 31 31 32 32 32 31 30 29 28 28 27 28 28 30 31 34 36 35 35 35 35 34 34 34 34 35 36 35 32 31 30 30
28 29 30 30 30 30 31 31 30 30 29 30 30 31 31 31 31 31 30 30 29 28 27 27 27 28 30 33 34 32 31 30 30 31 32 32 32 35 35 31 29 27 27
30 28 29 29 28 29 30 29 28 28 28 29 30 31 30 30 30 30 32 32 31 29 29 28 28 29 28 31 31 31 30 28 28 29 30 32 31 32 30 29 27 25 25
31 31 29 28 29 28 26 26 27 27 28 27 27 28 29 28 29 30 30 30 30 29 28 27 27 29 30 30 30 30 26 26 26 27 28 30 31 31 30 28 27 25 26
28 22 23 26 28 30 28 25 25 28 29 28 26 23 24 27 26 25 26 27 26 26 26 25 25 26 27 30 31 31 30 29 26 26 28 30 31 31 31 29 28 26 25
20 17 18 19 21 22 23 25 26 27 27 27 27 26 23 22 24 22 22 23 25 22 22 22 22 22 25 25 28 30 30 31 28 29 30 30 30 31 30 31 30 30 28
17 15 16 17 19 20 21 21 23 24 24 24 25 25 26 24 22 21 20 20 20 21 21 20 20 20 21 23 25 26 27 28 29 29 30 29 29 28 27 27 29 29 29
16 15 16 17 18 19 21 21 21 22 21 22 23 23 23 24 23 21 20 19 19 19 19 21 20 19 19 21 22 24 25 27 27 25 25 24 23 23 24 23 24 25 26
17 15 15 16 18 20 21 22 24 24 23 23 23 24 24 24 23 24 22 21 21 20 19 20 20 21 21 22 21 21 22 23 23 22 21 20 20 19 19 20 20 20 21

GFSMW_sfc_dewp_117.txt.gz
Dewpoint
43 45 45 45 45 45 45 46 47 48 48 48 48 49 51 52 54 57 59 60 67 65 65 67 66 66 65 64 65 64 64 62 63 62 60 61 61 62 62 63 63 63 62
42 43 43 43 44 44 45 45 45 45 46 46 46 48 49 52 52 55 56 58 59 63 66 66 66 66 65 64 64 63 61 63 64 60 58 58 57 60 62 62 62 62 62
39 40 41 41 42 43 43 43 44 43 45 45 45 46 47 48 49 49 51 52 54 57 62 65 65 66 66 65 64 64 63 62 62 62 59 55 53 55 59 61 62 61 61
38 37 37 38 40 40 42 42 42 42 42 42 43 43 44 44 45 46 47 48 49 52 55 59 64 65 65 65 64 65 64 63 61 61 60 57 56 52 52 57 61 61 61
37 36 36 37 38 38 40 40 40 40 40 40 40 41 41 42 43 44 44 45 47 49 50 55 58 63 64 64 64 63 64 63 62 61 61 59 57 56 54 53 56 59 60
34 34 35 35 36 37 38 38 38 38 38 38 38 38 38 38 39 40 41 43 45 47 49 52 56 60 63 64 64 63 63 64 63 61 60 60 58 56 55 53 54 57 58
33 33 34 34 35 35 36 35 36 35 35 35 36 36 36 37 37 38 40 40 42 44 47 50 52 56 61 63 64 63 63 63 63 61 61 60 59 58 57 55 54 54 56
31 31 33 33 33 33 33 34 33 33 34 34 34 34 34 36 36 37 38 39 41 42 44 47 49 52 54 61 63 63 63 63 63 62 62 61 60 59 57 56 54 52 54
34 32 32 32 32 31 33 33 32 32 32 32 32 33 34 34 35 37 38 39 40 41 43 45 47 50 52 58 61 61 61 64 64 63 62 61 61 60 59 58 57 55 52
29 31 32 32 31 31 31 32 32 31 31 31 32 32 34 35 35 36 37 39 40 42 43 44 45 48 52 56 61 59 61 61 63 63 62 61 61 60 60 59 59 57 54
29 30 31 31 30 30 30 31 32 32 31 31 32 33 34 35 36 36 38 39 41 42 44 46 48 48 50 53 61 60 59 59 61 62 62 61 60 59 59 58 57 59 58
29 29 29 30 29 29 29 30 31 31 31 30 32 33 34 34 34 35 36 38 39 40 43 47 50 50 50 53 60 61 60 60 61 61 61 60 59 58 57 58 57 58 59
28 28 28 28 28 28 29 30 30 31 30 31 32 32 33 33 33 34 35 36 36 38 41 42 47 52 52 54 59 60 61 61 60 61 61 60 59 57 58 59 59 59 59
27 27 27 27 28 27 29 29 29 31 30 32 32 32 33 32 32 32 33 34 34 35 36 40 40 44 47 54 59 59 58 59 61 60 61 61 60 57 58 59 59 58 58
27 27 27 27 27 28 29 29 29 30 32 31 32 32 33 33 31 30 30 31 32 33 33 35 37 38 38 42 49 56 58 59 57 51 47 46 47 50 53 55 52 54 53
26 26 26 26 27 29 29 28 29 30 32 31 31 32 33 32 32 30 30 29 29 31 32 31 33 34 35 37 41 51 58 52 47 42 39 39 39 39 38 38 36 40 48
25 25 25 27 28 29 29 29 30 31 30 30 31 31 32 32 32 32 30 29 29 29 29 30 31 31 33 34 35 36 37 37 40 42 43 39 38 35 34 34 33 33 33
24 25 26 27 29 29 30 31 30 30 29 28 29 29 30 30 30 31 30 29 29 28 29 28 29 29 31 33 33 32 33 32 33 34 36 38 36 36 34 32 30 29 30
25 26 28 28 28 28 30 29 29 28 26 26 27 28 28 27 29 28 29 29 28 27 27 27 29 29 29 31 32 31 30 30 31 31 32 33 31 34 33 30 27 27 27
27 27 29 29 27 27 28 27 27 28 26 23 23 25 25 25 25 27 27 28 27 26 26 25 26 29 29 32 31 29 29 28 28 29 30 32 31 31 31 28 27 24 24
29 30 28 28 29 29 28 25 26 26 27 27 23 22 23 22 22 24 25 24 24 24 23 23 24 25 28 30 33 31 28 28 28 28 29 31 31 31 30 29 27 25 26
29 25 24 25 26 26 26 25 24 26 27 25 24 23 22 22 20 20 21 22 21 20 20 20 21 24 25 29 30 31 31 30 28 27 29 30 32 32 31 30 30 29 27
24 21 20 20 22 22 23 23 24 24 25 25 24 23 23 22 21 18 18 18 19 19 19 19 19 21 24 25 27 28 29 28 27 28 29 29 28 28 28 30 30 29 28
18 18 19 19 20 22 23 23 23 24 24 24 24 24 24 22 21 19 19 18 18 17 18 19 20 21 22 23 25 26 26 25 24 25 25 25 26 25 25 25 26 27 27
17 18 18 19 20 20 21 22 23 23 22 22 23 23 23 23 22 22 20 19 20 20 18 18 20 21 21 22 22 23 23 23 23 22 21 21 21 20 21 21 22 24 25
18 17 17 18 20 21 22 22 22 23 23 23 22 23 23 22 22 22 21 23 20 19 21 22 20 20 22 22 21 20 21 21 20 18 17 17 17 17 18 19 19 20 21

GFSMW_sfc_dewp_120.txt.gz
Dewpoint
45 44 44 44 44 44 44 44 44 45 45 45 45 46 46 48 50 53 55 56 59 61 62 66 66 66 65 65 65 65 63 62 63 61 59 60 61 62 62 63 63 62 62
42 42 42 42 42 42 43 42 42 42 43 43 43 45 44 48 48 50 48 52 50 52 56 58 62 65 65 65 64 64 62 64 63 61 57 57 58 60 61 61 62 62 62
39 39 39 40 40 40 40 40 40 40 40 41 41 41 42 43 44 43 44 45 47 49 52 55 58 61 64 64 64 64 62 62 62 62 59 54 54 55 58 61 61 61 61
37 37 37 37 38 39 39 39 39 38 37 39 38 39 39 39 41 41 42 42 44 44 48 51 53 55 58 63 63 64 63 63 61 62 62 58 56 53 53 58 61 61 60
36 38 38 37 36 36 37 36 37 36 36 36 37 37 36 37 38 39 39 40 41 43 45 48 50 53 55 58 63 62 63 62 60 60 62 58 57 55 53 52 57 60 61
35 36 36 35 34 34 35 34 34 34 34 35 35 35 35 35 35 36 37 39 40 41 43 45 48 50 52 56 60 63 62 61 60 59 60 60 57 56 54 52 53 56 59
34 35 34 32 32 32 32 31 32 32 32 32 32 32 33 34 34 35 36 37 38 39 41 42 44 45 48 52 54 59 62 61 61 60 60 60 59 59 57 55 53 54 55
35 36 34 33 31 31 31 31 31 31 30 31 31 32 32 33 34 35 35 37 37 38 39 41 42 44 45 48 50 53 61 62 61 60 61 61 61 61 58 56 54 51 53
37 34 32 31 30 30 31 31 31 31 31 31 31 31 32 32 33 34 35 36 37 38 40 42 42 43 43 45 48 51 53 61 61 61 61 61 61 61 60 59 57 55 50
35 34 33 32 31 30 30 30 31 31 31 30 30 31 31 32 33 33 34 36 37 38 40 41 42 43 45 44 46 49 53 59 61 61 61 61 61 61 61 60 59 57 53
29 29 29 29 29 28 28 29 30 30 29 30 30 30 31 33 34 34 35 36 36 37 38 39 40 42 44 46 48 48 51 54 59 61 61 61 61 61 60 60 59 57 56
28 28 28 28 27 27 28 29 28 29 31 31 31 30 31 32 32 32 33 34 35 36 36 38 39 42 44 47 48 49 50 52 58 59 60 61 61 61 60 59 59 58 57
27 27 27 27 26 26 28 27 27 28 30 31 32 32 32 33 31 31 32 32 32 34 35 35 38 40 43 44 51 50 50 52 58 58 58 60 61 60 60 60 58 57 58
26 26 25 25 26 27 27 26 29 29 30 30 31 31 32 33 33 32 31 31 31 31 33 34 35 36 38 39 44 51 51 53 59 58 58 59 60 59 59 58 57 56 57
25 25 25 25 25 26 26 27 29 29 30 30 30 30 32 33 33 32 32 32 31 31 31 32 32 34 34 35 38 46 54 55 58 55 56 57 58 53 56 57 57 57 57
25 25 24 26 26 27 28 28 28 29 30 29 29 29 29 31 31 31 31 30 29 30 31 31 31 31 32 34 38 42 43 44 43 42 42 43 43 46 44 42 41 52 56
24 24 24 26 26 27 28 28 28 28 27 27 28 28 27 27 29 29 29 28 28 28 27 29 31 30 31 34 34 34 35 35 35 38 40 37 38 39 40 38 37 36 36
23 23 24 25 26 27 28 29 27 25 24 24 25 26 25 25 26 27 26 27 27 26 26 27 29 30 31 33 33 31 31 32 32 32 32 34 35 34 34 35 34 32 32
23 23 24 23 25 26 28 28 29 28 24 22 22 23 23 22 23 24 24 25 25 25 25 26 27 28 30 32 32 31 30 30 30 30 31 32 32 32 32 30 30 28 27
22 23 26 28 28 28 28 27 27 27 25 24 22 22 21 19 19 21 22 22 23 23 24 25 26 28 28 32 32 30 30 28 28 29 30 32 31 31 30 29 26 24 25
26 29 27 26 26 27 27 25 25 24 25 25 23 22 22 20 19 19 20 20 21 21 21 22 23 25 28 30 31 29 28 27 26 26 28 30 32 31 31 29 27 27 28
29 27 24 25 26 26 25 24 23 25 25 25 23 22 21 22 21 20 20 19 19 19 21 21 22 23 25 27 28 28 27 27 25 25 26 28 29 30 30 29 30 29 28
27 24 23 23 24 24 24 23 24 24 25 24 24 21 22 22 21 19 20 20 19 18 19 21 21 21 23 24 24 25 25 24 24 25 26 26 26 26 26 28 28 27 27
26 23 21 21 20 21 22 23 24 24 24 24 23 23 24 21 22 20 19 19 20 20 18 19 20 21 21 21 23 22 21 21 21 21 21 21 22 22 23 23 24 25 25
23 21 21 20 21 22 22 22 22 24 21 21 22 22 22 23 21 21 18 17 21 21 21 18 19 20 21 21 21 20 20 20 20 18 18 17 17 17 18 19 20 21 22
20 19 19 19 19 20 20 21 23 22 22 21 21 21 21 21 21 20 18 19 18 21 22 21 19 19 20 21 21 21 19 19 19 17 16 15 16 16 16 16 17 18 19